TimeCDT,TemperatureF,Dew PointF,Humidity,Sea Level PressureIn,VisibilityMPH,Wind Direction,Wind SpeedMPH,Gust SpeedMPH,PrecipitationIn,Events,Conditions,WindDirDegrees,DateUTC
12:14 AM,57.2,51.8,82,30.15,10.0,Calm,Calm,-,N/A,,Overcast,0,2013-08-10 05:14:00
12:34 AM,55.4,51.8,88,30.15,10.0,Calm,Calm,-,N/A,,Overcast,0,2013-08-10 05:34:00
12:54 AM,55.4,51.8,88,30.15,10.0,Calm,Calm,-,N/A,,Overcast,0,2013-08-10 05:54:00
1:15 AM,55.4,51.8,88,30.15,10.0,Calm,Calm,-,N/A,,Overcast,0,2013-08-10 06:15:00
1:34 AM,55.4,51.8,88,30.15,10.0,Calm,Calm,-,N/A,,Overcast,0,2013-08-10 06:34:00
1:55 AM,55.4,51.8,88,30.15,10.0,Calm,Calm,-,N/A,,Overcast,0,2013-08-10 06:55:00
2:14 AM,55.4,51.8,88,30.16,10.0,Calm,Calm,-,N/A,,Overcast,0,2013-08-10 07:14:00
2:35 AM,55.4,51.8,88,30.17,10.0,Calm,Calm,-,N/A,,Overcast,0,2013-08-10 07:35:00
2:54 AM,55.4,51.8,88,30.17,10.0,Calm,Calm,-,N/A,,Overcast,0,2013-08-10 07:54:00
3:14 AM,55.4,51.8,88,30.17,10.0,Calm,Calm,-,N/A,,Overcast,0,2013-08-10 08:14:00
3:34 AM,55.4,51.8,88,30.18,10.0,Calm,Calm,-,N/A,,Overcast,0,2013-08-10 08:34:00
3:54 AM,55.4,51.8,88,30.17,10.0,Calm,Calm,-,N/A,,Overcast,0,2013-08-10 08:54:00
4:15 AM,55.4,51.8,88,30.18,10.0,Calm,Calm,-,N/A,,Overcast,0,2013-08-10 09:15:00
4:34 AM,55.4,51.8,88,30.18,10.0,Calm,Calm,-,N/A,,Overcast,0,2013-08-10 09:34:00
4:54 AM,55.4,51.8,88,30.18,10.0,Calm,Calm,-,N/A,,Overcast,0,2013-08-10 09:54:00
5:15 AM,55.4,51.8,88,30.19,10.0,Calm,Calm,-,N/A,,Overcast,0,2013-08-10 10:15:00
5:34 AM,55.4,51.8,88,30.19,10.0,Calm,Calm,-,N/A,,Overcast,0,2013-08-10 10:34:00
5:55 AM,55.4,51.8,88,30.19,10.0,Calm,Calm,-,N/A,,Overcast,0,2013-08-10 10:55:00
6:14 AM,55.4,51.8,88,30.19,10.0,Calm,Calm,-,N/A,,Overcast,0,2013-08-10 11:14:00
6:34 AM,55.4,51.8,88,30.19,10.0,Calm,Calm,-,N/A,,Overcast,0,2013-08-10 11:34:00
6:54 AM,55.4,51.8,88,30.19,10.0,Calm,Calm,-,N/A,,Overcast,0,2013-08-10 11:54:00
7:14 AM,55.4,51.8,88,30.19,10.0,Calm,Calm,-,N/A,,Overcast,0,2013-08-10 12:14:00
7:35 AM,55.4,51.8,88,30.20,10.0,Calm,Calm,-,N/A,,Overcast,0,2013-08-10 12:35:00
7:54 AM,57.2,51.8,82,30.20,10.0,Calm,Calm,-,N/A,,Overcast,0,2013-08-10 12:54:00
8:14 AM,59.0,51.8,77,30.20,10.0,Calm,Calm,-,N/A,,Overcast,0,2013-08-10 13:14:00
8:34 AM,59.0,51.8,77,30.21,10.0,Calm,Calm,-,N/A,,Overcast,0,2013-08-10 13:34:00
8:54 AM,59.0,51.8,77,30.21,10.0,Calm,Calm,-,N/A,,Overcast,0,2013-08-10 13:54:00
9:14 AM,60.8,53.6,77,30.21,10.0,Calm,Calm,-,N/A,,Overcast,0,2013-08-10 14:14:00
9:34 AM,62.6,53.6,72,30.21,10.0,Calm,Calm,-,N/A,,Overcast,0,2013-08-10 14:34:00
9:54 AM,64.4,53.6,68,30.20,10.0,Calm,Calm,-,N/A,,Overcast,0,2013-08-10 14:54:00
10:14 AM,64.4,53.6,68,30.20,10.0,Calm,Calm,-,N/A,,Overcast,0,2013-08-10 15:14:00
10:34 AM,64.4,53.6,68,30.21,10.0,Calm,Calm,-,N/A,,Overcast,0,2013-08-10 15:34:00
10:54 AM,68.0,53.6,60,30.20,10.0,Calm,Calm,-,N/A,,Mostly Cloudy,0,2013-08-10 15:54:00
11:14 AM,69.8,53.6,56,30.20,10.0,Calm,Calm,-,N/A,,Scattered Clouds,0,2013-08-10 16:14:00
11:34 AM,69.8,53.6,56,30.20,10.0,Calm,Calm,-,N/A,,Scattered Clouds,0,2013-08-10 16:34:00
11:54 AM,69.8,51.8,53,30.20,10.0,Calm,Calm,-,N/A,,Mostly Cloudy,0,2013-08-10 16:54:00
12:14 PM,69.8,48.2,46,30.20,10.0,Calm,Calm,-,N/A,,Mostly Cloudy,0,2013-08-10 17:14:00
12:34 PM,69.8,44.6,40,30.20,10.0,Calm,Calm,-,N/A,,Mostly Cloudy,0,2013-08-10 17:34:00
12:54 PM,69.8,51.8,53,30.19,10.0,Calm,Calm,-,N/A,,Mostly Cloudy,0,2013-08-10 17:54:00
1:14 PM,69.8,51.8,53,30.20,10.0,Calm,Calm,-,N/A,,Overcast,0,2013-08-10 18:14:00
1:34 PM,69.8,50.0,49,30.20,10.0,Calm,Calm,-,N/A,,Overcast,0,2013-08-10 18:34:00
1:54 PM,69.8,50.0,49,30.19,10.0,Calm,Calm,-,N/A,,Overcast,0,2013-08-10 18:54:00
2:14 PM,69.8,48.2,46,30.19,10.0,Calm,Calm,-,N/A,,Overcast,0,2013-08-10 19:14:00
2:34 PM,69.8,48.2,46,30.19,10.0,Calm,Calm,-,N/A,,Overcast,0,2013-08-10 19:34:00
2:54 PM,69.8,48.2,46,30.18,10.0,Calm,Calm,-,N/A,,Mostly Cloudy,0,2013-08-10 19:54:00
3:14 PM,69.8,48.2,46,30.18,10.0,Calm,Calm,-,N/A,,Mostly Cloudy,0,2013-08-10 20:14:00
3:34 PM,69.8,50.0,49,30.17,10.0,Calm,Calm,-,N/A,,Overcast,0,2013-08-10 20:34:00
3:54 PM,69.8,50.0,49,30.17,10.0,Calm,Calm,-,N/A,,Overcast,0,2013-08-10 20:54:00
4:14 PM,69.8,50.0,49,30.16,10.0,Calm,Calm,-,N/A,,Overcast,0,2013-08-10 21:14:00
4:34 PM,73.4,46.4,38,30.16,10.0,Calm,Calm,-,N/A,,Overcast,0,2013-08-10 21:34:00
4:54 PM,73.4,48.2,41,30.15,10.0,Calm,Calm,-,N/A,,Mostly Cloudy,0,2013-08-10 21:54:00
5:14 PM,71.6,48.2,43,30.15,10.0,West,4.6,-,N/A,,Scattered Clouds,260,2013-08-10 22:14:00
5:34 PM,71.6,46.4,41,30.15,10.0,Calm,Calm,-,N/A,,Clear,0,2013-08-10 22:34:00
5:54 PM,71.6,50.0,46,30.15,10.0,Calm,Calm,-,N/A,,Clear,0,2013-08-10 22:54:00
6:14 PM,69.8,46.4,43,30.14,10.0,WSW,5.8,-,N/A,,Scattered Clouds,250,2013-08-10 23:14:00
6:34 PM,69.8,50.0,49,30.14,10.0,Calm,Calm,-,N/A,,Scattered Clouds,0,2013-08-10 23:34:00
6:54 PM,69.8,51.8,53,30.14,10.0,Calm,Calm,-,N/A,,Clear,0,2013-08-10 23:54:00
7:14 PM,69.8,50.0,49,30.14,10.0,Calm,Calm,-,N/A,,Clear,0,2013-08-11 00:14:00
7:34 PM,68.0,50.0,52,30.13,10.0,Calm,Calm,-,N/A,,Clear,0,2013-08-11 00:34:00
7:54 PM,66.2,50.0,56,30.13,10.0,Calm,Calm,-,N/A,,Clear,0,2013-08-11 00:54:00
8:14 PM,64.4,50.0,59,30.12,10.0,Calm,Calm,-,N/A,,Clear,0,2013-08-11 01:14:00
8:32 PM,62.6,51.8,68,30.12,10.0,Calm,Calm,-,N/A,,Clear,0,2013-08-11 01:32:00
8:54 PM,59.0,51.8,77,30.12,10.0,Calm,Calm,-,N/A,,Clear,0,2013-08-11 01:54:00
9:14 PM,57.2,51.8,82,30.12,10.0,Calm,Calm,-,N/A,,Clear,0,2013-08-11 02:14:00
9:34 PM,55.4,50.0,82,30.13,10.0,Calm,Calm,-,N/A,,Clear,0,2013-08-11 02:34:00
9:54 PM,55.4,51.8,88,30.13,10.0,Calm,Calm,-,N/A,,Clear,0,2013-08-11 02:54:00
10:14 PM,53.6,50.0,88,30.13,10.0,Calm,Calm,-,N/A,,Clear,0,2013-08-11 03:14:00
10:34 PM,53.6,50.0,88,30.12,10.0,Calm,Calm,-,N/A,,Clear,0,2013-08-11 03:34:00
10:54 PM,53.6,50.0,88,30.12,10.0,Calm,Calm,-,N/A,,Clear,0,2013-08-11 03:54:00
11:14 PM,53.6,51.8,94,30.12,10.0,Calm,Calm,-,N/A,,Clear,0,2013-08-11 04:14:00
11:34 PM,51.8,50.0,94,30.12,10.0,Calm,Calm,-,N/A,,Clear,0,2013-08-11 04:34:00
11:54 PM,50.0,48.2,94,30.12,7.0,Calm,Calm,-,N/A,,Clear,0,2013-08-11 04:54:00